Samus Swan — 9HA2333 — position and weather

sailwx.info

Track history (hours):
 
Tides and Currents Weather Stations Pressure Air Temp Water Temp Dewpoint Dewpoint Depression Visibility Wind Speed Wind Dir Waves Ship Positions

Samus Swan

Last reported at 2014-Nov-26 22:32 UTC. Time now 2014-Nov-27 00:16 UTC.
Position N 36°00' W 032°30'.

Length 106 m; draft 5.7 m.

Type: Ship (hazmat cat B). MMSI: 248363000.

Date/timePositionNaut miles runAvg speedWind from/ knotsBaromVisibWave heightAir tempDewpointWater temp
2014-Nov-26 22:32N 36°00' W 032°30'7510.5
2014-Nov-26 15:23N 36°02' W 030°58'1210.3
2014-Nov-26 14:11N 36°02' W 030°42'810.4
2014-Nov-26 13:27N 36°01' W 030°33'2010.6
2014-Nov-26 11:33N 36°00' W 030°08'1410.6
2014-Nov-26 10:12N 35°60' W 029°51'810.5
2014-Nov-26 09:25N 35°60' W 029°40'1410.4
2014-Nov-26 08:05N 35°60' W 029°23'16310.5
2014-Nov-25 16:30N 36°00' W 026°01'1010.7
2014-Nov-25 15:34N 35°60' W 025°49'1211.8
2014-Nov-25 14:34N 35°60' W 025°34'1212.4
2014-Nov-25 13:34N 35°59' W 025°19'6 5.6
2014-Nov-25 12:34N 36°05' W 025°19'1312.7
2014-Nov-25 11:34N 36°08' W 025°03'1313.4
2014-Nov-25 10:33N 36°15' W 024°49'1313.4
2014-Nov-25 09:33N 36°21' W 024°34'1313.5
2014-Nov-25 08:33N 36°29' W 024°21'1413.7
2014-Nov-25 07:33N 36°39' W 024°08'1413.5
2014-Nov-25 06:33N 36°48' W 023°56'1413.7
2014-Nov-25 05:33N 36°58' W 023°44'  
2014-Nov-20 13:33N 50°31' W 000°02'1413.6
2014-Nov-20 12:33N 50°34' E 000°19'1313.0
2014-Nov-20 11:33N 50°37' E 000°39'1212.4
2014-Nov-20 10:33N 50°44' E 000°55'1312.5
2014-Nov-20 09:31N 50°51' E 001°12'1111.1
2014-Nov-20 08:33N 50°59' E 001°24'1312.7
2014-Nov-20 07:33N 51°08' E 001°38'1413.8
2014-Nov-20 06:34N 51°20' E 001°50'1414.0
2014-Nov-20 05:34N 51°32' E 002°01'18711.0
2014-Nov-19 12:33N 54°04' E 004°59'1313.3
2014-Nov-19 11:33N 54°06' E 005°21'1313.2
2014-Nov-19 10:32N 54°08' E 005°44'4912.4
2014-Nov-19 06:33N 54°12' E 007°08'1111.4
2014-Nov-19 05:33N 54°12' E 007°28'1111.1
2014-Nov-19 04:33N 54°08' E 007°45'8 8.2
2014-Nov-19 03:33N 54°05' E 007°58'1 1.4
2014-Nov-19 02:33N 54°06' E 007°59'6 6.2
2014-Nov-19 01:33N 54°01' E 008°07'1312.8
2014-Nov-19 00:33N 53°59' E 008°28'1414.3
2014-Nov-18 23:34N 53°51' E 008°48'1312.7
2014-Nov-18 22:33N 53°53' E 009°09'2110.4
2014-Nov-18 20:34N 53°38' E 009°33'1111.2
2014-Nov-18 19:34N 53°33' E 009°50'6 5.4
2014-Nov-18 18:32N 53°32' E 009°59'0 0.0
2014-Nov-18 17:32N 53°32' E 009°59'0 0.0
2014-Nov-18 16:32N 53°32' E 009°59'0 0.0
2014-Nov-18 15:29N 53°32' E 009°59'0 0.0
2014-Nov-18 14:32N 53°32' E 009°59'2 2.1
2014-Nov-18 13:34N 53°32' E 009°56'2 1.5
2014-Nov-18 12:29N 53°32' E 009°53'0 0.0
2014-Nov-17 21:23N 53°32' E 009°53'4 4.8
2014-Nov-17 20:33N 53°34' E 009°46'1313.4
2014-Nov-17 19:33N 53°42' E 009°29'1515.0
2014-Nov-17 18:33N 53°53' E 009°11'1313.2
2014-Nov-17 17:34N 53°50' E 008°49'1414.2
2014-Nov-17 16:33N 53°58' E 008°30'1313.3
2014-Nov-17 15:33N 53°60' E 008°07'9 8.8
2014-Nov-17 14:34N 54°03' E 007°53'1111.3
2014-Nov-17 13:34N 54°08' E 007°36'1211.9
2014-Nov-17 12:33N 54°09' E 007°16'4011.6
2014-Nov-17 09:08N 54°08' E 006°08'711.5
2014-Nov-17 08:33N 54°07' E 005°57'1211.5
2014-Nov-17 07:33N 54°05' E 005°37'1211.6
2014-Nov-17 06:33N 54°03' E 005°18'1211.8
2014-Nov-17 05:34N 54°02' E 004°58'  
Track history (hours):
 
Tides and Currents Weather Stations Pressure Air Temp Water Temp Dewpoint Dewpoint Depression Visibility Wind Speed Wind Dir Waves Ship Positions

Samus Swan

Last reported at 2014-Nov-26 22:32 UTC. Time now 2014-Nov-27 00:16 UTC.
Position N 36°00' W 032°30'.

Length 106 m; draft 5.7 m.

Type: Ship (hazmat cat B). MMSI: 248363000.

Date/timePositionNaut miles runAvg speedWind from/ knotsBaromVisibWave heightAir tempDewpointWater temp
2014-Nov-26 22:32N 36°00' W 032°30'7510.5
2014-Nov-26 15:23N 36°02' W 030°58'1210.3
2014-Nov-26 14:11N 36°02' W 030°42'810.4
2014-Nov-26 13:27N 36°01' W 030°33'2010.6
2014-Nov-26 11:33N 36°00' W 030°08'1410.6
2014-Nov-26 10:12N 35°60' W 029°51'810.5
2014-Nov-26 09:25N 35°60' W 029°40'1410.4
2014-Nov-26 08:05N 35°60' W 029°23'16310.5
2014-Nov-25 16:30N 36°00' W 026°01'1010.7
2014-Nov-25 15:34N 35°60' W 025°49'1211.8
2014-Nov-25 14:34N 35°60' W 025°34'1212.4
2014-Nov-25 13:34N 35°59' W 025°19'6 5.6
2014-Nov-25 12:34N 36°05' W 025°19'1312.7
2014-Nov-25 11:34N 36°08' W 025°03'1313.4
2014-Nov-25 10:33N 36°15' W 024°49'1313.4
2014-Nov-25 09:33N 36°21' W 024°34'1313.5
2014-Nov-25 08:33N 36°29' W 024°21'1413.7
2014-Nov-25 07:33N 36°39' W 024°08'1413.5
2014-Nov-25 06:33N 36°48' W 023°56'1413.7
2014-Nov-25 05:33N 36°58' W 023°44'  
2014-Nov-20 13:33N 50°31' W 000°02'1413.6
2014-Nov-20 12:33N 50°34' E 000°19'1313.0
2014-Nov-20 11:33N 50°37' E 000°39'1212.4
2014-Nov-20 10:33N 50°44' E 000°55'1312.5
2014-Nov-20 09:31N 50°51' E 001°12'1111.1
2014-Nov-20 08:33N 50°59' E 001°24'1312.7
2014-Nov-20 07:33N 51°08' E 001°38'1413.8
2014-Nov-20 06:34N 51°20' E 001°50'1414.0
2014-Nov-20 05:34N 51°32' E 002°01'18711.0
2014-Nov-19 12:33N 54°04' E 004°59'1313.3
2014-Nov-19 11:33N 54°06' E 005°21'1313.2
2014-Nov-19 10:32N 54°08' E 005°44'4912.4
2014-Nov-19 06:33N 54°12' E 007°08'1111.4
2014-Nov-19 05:33N 54°12' E 007°28'1111.1
2014-Nov-19 04:33N 54°08' E 007°45'8 8.2
2014-Nov-19 03:33N 54°05' E 007°58'1 1.4
2014-Nov-19 02:33N 54°06' E 007°59'6 6.2
2014-Nov-19 01:33N 54°01' E 008°07'1312.8
2014-Nov-19 00:33N 53°59' E 008°28'1414.3
2014-Nov-18 23:34N 53°51' E 008°48'1312.7
2014-Nov-18 22:33N 53°53' E 009°09'2110.4
2014-Nov-18 20:34N 53°38' E 009°33'1111.2
2014-Nov-18 19:34N 53°33' E 009°50'6 5.4
2014-Nov-18 18:32N 53°32' E 009°59'0 0.0
2014-Nov-18 17:32N 53°32' E 009°59'0 0.0
2014-Nov-18 16:32N 53°32' E 009°59'0 0.0
2014-Nov-18 15:29N 53°32' E 009°59'0 0.0
2014-Nov-18 14:32N 53°32' E 009°59'2 2.1
2014-Nov-18 13:34N 53°32' E 009°56'2 1.5
2014-Nov-18 12:29N 53°32' E 009°53'0 0.0
2014-Nov-17 21:23N 53°32' E 009°53'4 4.8
2014-Nov-17 20:33N 53°34' E 009°46'1313.4
2014-Nov-17 19:33N 53°42' E 009°29'1515.0
2014-Nov-17 18:33N 53°53' E 009°11'1313.2
2014-Nov-17 17:34N 53°50' E 008°49'1414.2
2014-Nov-17 16:33N 53°58' E 008°30'1313.3
2014-Nov-17 15:33N 53°60' E 008°07'9 8.8
2014-Nov-17 14:34N 54°03' E 007°53'1111.3
2014-Nov-17 13:34N 54°08' E 007°36'1211.9
2014-Nov-17 12:33N 54°09' E 007°16'4011.6
2014-Nov-17 09:08N 54°08' E 006°08'711.5
2014-Nov-17 08:33N 54°07' E 005°57'1211.5
2014-Nov-17 07:33N 54°05' E 005°37'1211.6
2014-Nov-17 06:33N 54°03' E 005°18'1211.8
2014-Nov-17 05:34N 54°02' E 004°58'  

Dump ship's entire track history